When you browse on this site, cookies collect data to enhance your experience and personalize the content and advertising you see.
Visit our Privacy Policy to learn more. By continuing to use the site, you agree to this use of cookies and data.

Meteo pe oră la Dzierniakowo

Astăzi, 25 Septembrie, Vineri

Timp Temperatura Precipitaţii Vânt Presiune Umiditate
00:00 +16°C° 0 mm 2 m/s 742 mmHg 91%
01:00 +15°C° 0 mm 2 m/s 742 mmHg 91%
02:00 +15°C° 0 mm 2 m/s 742 mmHg 92%
03:00 +15°C° 0 mm 2 m/s 742 mmHg 92%
04:00 +15°C° 0 mm 2 m/s 742 mmHg 92%
05:00 +15°C° 0 mm 2 m/s 742 mmHg 92%
06:00 +14°C° 0 mm 3 m/s 741 mmHg 90%
07:00 +16°C° 0 mm 3 m/s 741 mmHg 87%
08:00 +17°C° 0 mm 3 m/s 741 mmHg 85%
09:00 +18°C° 0 mm 4 m/s 741 mmHg 78%
10:00 +20°C° 0 mm 4 m/s 741 mmHg 70%
11:00 +22°C° 0 mm 5 m/s 741 mmHg 63%
12:00 +23°C° 0 mm 5 m/s 740 mmHg 59%
13:00 +24°C° 0 mm 6 m/s 740 mmHg 54%
14:00 +26°C° 0 mm 6 m/s 739 mmHg 50%
15:00 +25°C° 0 mm 5 m/s 739 mmHg 52%
16:00 +23°C° 0 mm 5 m/s 738 mmHg 55%
17:00 +23°C° 0 mm 4 m/s 738 mmHg 58%
18:00 +22°C° 0 mm 4 m/s 738 mmHg 61%
19:00 +21°C° 0 mm 4 m/s 738 mmHg 65%
20:00 +20°C° 0 mm 4 m/s 737 mmHg 69%
21:00 +19°C° 0 mm 5 m/s 737 mmHg 71%
22:00 +19°C° 0 mm 5 m/s 737 mmHg 72%
23:00 +19°C° 0 mm 5 m/s 737 mmHg 74%

Mâine, 26 Septembrie, Sâmbătă

Timp Temperatura Precipitaţii Vânt Presiune Umiditate
00:00 +17°C° 0 mm 5 m/s 737 mmHg 77%
01:00 +18°C° 0 mm 4 m/s 737 mmHg 79%
02:00 +17°C° 0 mm 4 m/s 736 mmHg 82%
03:00 +17°C° 0 mm 4 m/s 736 mmHg 84%
04:00 +17°C° 0 mm 4 m/s 736 mmHg 85%
05:00 +17°C° 0 mm 4 m/s 736 mmHg 87%
06:00 +16°C° 0 mm 5 m/s 735 mmHg 85%
07:00 +16°C° 0 mm 6 m/s 735 mmHg 83%
08:00 +17°C° 0 mm 6 m/s 735 mmHg 80%
09:00 +18°C° 0 mm 7 m/s 736 mmHg 75%
10:00 +20°C° 0 mm 7 m/s 736 mmHg 70%
11:00 +22°C° 0 mm 8 m/s 736 mmHg 64%
12:00 +23°C° 0 mm 8 m/s 736 mmHg 60%
13:00 +24°C° 0 mm 8 m/s 736 mmHg 56%
14:00 +24°C° 0 mm 8 m/s 736 mmHg 51%
15:00 +24°C° 0 mm 7 m/s 736 mmHg 53%
16:00 +23°C° 0 mm 6 m/s 736 mmHg 56%
17:00 +23°C° 0 mm 6 m/s 736 mmHg 58%
18:00 +22°C° 0 mm 6 m/s 736 mmHg 59%
19:00 +22°C° 0 mm 6 m/s 736 mmHg 60%
20:00 +22°C° 0 mm 7 m/s 736 mmHg 61%
21:00 +21°C° 0 mm 7 m/s 736 mmHg 60%
22:00 +21°C° 0 mm 7 m/s 736 mmHg 58%
23:00 +21°C° 0 mm 7 m/s 736 mmHg 57%

Poimâine, 27 Septembrie, Duminică

Timp Temperatura Precipitaţii Vânt Presiune Umiditate
00:00 +20°C° 0 mm 7 m/s 736 mmHg 58%
01:00 +20°C° 0 mm 7 m/s 736 mmHg 59%
02:00 +20°C° 0 mm 6 m/s 736 mmHg 60%
03:00 +20°C° 0 mm 7 m/s 736 mmHg 59%
04:00 +18°C° 0 mm 7 m/s 736 mmHg 59%
05:00 +18°C° 0 mm 7 m/s 736 mmHg 58%
06:00 +18°C° 0 mm 7 m/s 736 mmHg 58%
07:00 +18°C° 0 mm 7 m/s 736 mmHg 57%
08:00 +18°C° 0 mm 7 m/s 736 mmHg 56%
09:00 +20°C° 0 mm 8 m/s 736 mmHg 54%
10:00 +20°C° 0 mm 8 m/s 736 mmHg 52%
11:00 +21°C° 0 mm 9 m/s 736 mmHg 50%
12:00 +19°C° 0 mm 9 m/s 736 mmHg 53%
13:00 +20°C° 0 mm 8 m/s 735 mmHg 55%
14:00 +18°C° 0 mm 8 m/s 735 mmHg 57%
15:00 +18°C° 0.1 mm 8 m/s 736 mmHg 64%
16:00 +17°C° 0.1 mm 8 m/s 736 mmHg 70%
17:00 +17°C° 0.1 mm 8 m/s 736 mmHg 77%
18:00 +15°C° 0.4 mm 7 m/s 737 mmHg 80%
19:00 +12°C° 0.4 mm 7 m/s 737 mmHg 84%
20:00 +10°C° 0.4 mm 6 m/s 738 mmHg 87%
21:00 +10°C° 0.1 mm 6 m/s 739 mmHg 86%
22:00 +10°C° 0.1 mm 5 m/s 740 mmHg 85%
23:00 +9°C° 0.1 mm 5 m/s 741 mmHg 84%

28 Septembrie, Luni

Timp Temperatura Precipitaţii Vânt Presiune Umiditate
00:00 +9°C° 0 mm 5 m/s 741 mmHg 84%
01:00 +9°C° 0 mm 5 m/s 742 mmHg 84%
02:00 +9°C° 0 mm 5 m/s 742 mmHg 84%
03:00 +9°C° 0 mm 5 m/s 743 mmHg 84%
04:00 +9°C° 0 mm 5 m/s 743 mmHg 84%
05:00 +9°C° 0 mm 5 m/s 743 mmHg 84%
06:00 +9°C° 0 mm 5 m/s 744 mmHg 83%
07:00 +9°C° 0 mm 5 m/s 744 mmHg 82%
08:00 +9°C° 0 mm 5 m/s 744 mmHg 81%
09:00 +12°C° 0 mm 5 m/s 745 mmHg 72%
10:00 +13°C° 0 mm 6 m/s 745 mmHg 63%
11:00 +15°C° 0 mm 6 m/s 745 mmHg 54%
12:00 +16°C° 0 mm 6 m/s 745 mmHg 51%
13:00 +16°C° 0 mm 6 m/s 745 mmHg 49%
14:00 +17°C° 0 mm 6 m/s 746 mmHg 46%
15:00 +16°C° 0 mm 5 m/s 745 mmHg 48%
16:00 +17°C° 0 mm 4 m/s 745 mmHg 51%
17:00 +17°C° 0 mm 3 m/s 745 mmHg 53%
18:00 +16°C° 0 mm 3 m/s 745 mmHg 57%
19:00 +14°C° 0 mm 3 m/s 746 mmHg 61%
20:00 +15°C° 0 mm 2 m/s 746 mmHg 65%
21:00 +14°C° 0 mm 3 m/s 746 mmHg 66%
22:00 +14°C° 0 mm 3 m/s 746 mmHg 67%
23:00 +14°C° 0 mm 3 m/s 746 mmHg 68%

29 Septembrie, Marţi

Timp Temperatura Precipitaţii Vânt Presiune Umiditate
00:00 +14°C° 0 mm 3 m/s 745 mmHg 71%
01:00 +14°C° 0 mm 2 m/s 745 mmHg 74%
02:00 +14°C° 0 mm 2 m/s 745 mmHg 77%
03:00 +14°C° 0.4 mm 2 m/s 744 mmHg 80%
04:00 +13°C° 0.4 mm 2 m/s 744 mmHg 84%
05:00 +13°C° 0.4 mm 2 m/s 744 mmHg 87%
06:00 +13°C° 0.8 mm 2 m/s 744 mmHg 89%
07:00 +13°C° 0.8 mm 2 m/s 744 mmHg 91%
08:00 +13°C° 0.8 mm 2 m/s 744 mmHg 93%
09:00 +14°C° 0.6 mm 2 m/s 744 mmHg 92%
10:00 +13°C° 0.6 mm 3 m/s 744 mmHg 91%
11:00 +14°C° 0.6 mm 3 m/s 744 mmHg 91%
12:00 +13°C° 1.3 mm 3 m/s 744 mmHg 92%
13:00 +13°C° 1.3 mm 3 m/s 743 mmHg 93%
14:00 +13°C° 1.3 mm 3 m/s 743 mmHg 94%
15:00 +13°C° 0.5 mm 3 m/s 743 mmHg 94%
16:00 +14°C° 0.5 mm 2 m/s 743 mmHg 94%
17:00 +13°C° 0.5 mm 2 m/s 743 mmHg 93%
18:00 +13°C° 0 mm 2 m/s 743 mmHg 94%
19:00 +13°C° 0 mm 2 m/s 744 mmHg 95%
20:00 +13°C° 0 mm 1 m/s 744 mmHg 95%
21:00 +13°C° 0.4 mm 1 m/s 744 mmHg 96%
22:00 +13°C° 0.4 mm 1 m/s 744 mmHg 97%
23:00 +13°C° 0.4 mm 1 m/s 744 mmHg 97%

30 Septembrie, Miercuri

Timp Temperatura Precipitaţii Vânt Presiune Umiditate
00:00 +13°C° 1.1 mm 2 m/s 743 mmHg 97%
01:00 +13°C° 1.1 mm 2 m/s 743 mmHg 97%
02:00 +12°C° 1.1 mm 3 m/s 743 mmHg 97%
03:00 +12°C° 0.4 mm 3 m/s 743 mmHg 96%
04:00 +12°C° 0.4 mm 3 m/s 743 mmHg 96%
05:00 +12°C° 0.4 mm 3 m/s 742 mmHg 95%
06:00 +12°C° 0.1 mm 3 m/s 742 mmHg 94%
07:00 +12°C° 0.1 mm 4 m/s 742 mmHg 93%
08:00 +12°C° 0.1 mm 4 m/s 742 mmHg 92%
09:00 +12°C° 0 mm 5 m/s 742 mmHg 91%
10:00 +13°C° 0 mm 5 m/s 742 mmHg 89%
11:00 +13°C° 0 mm 5 m/s 741 mmHg 88%
12:00 +13°C° 0 mm 6 m/s 741 mmHg 85%
13:00 +14°C° 0 mm 6 m/s 741 mmHg 82%
14:00 +14°C° 0 mm 6 m/s 741 mmHg 79%
15:00 +14°C° 0.2 mm 5 m/s 741 mmHg 80%
16:00 +14°C° 0.2 mm 5 m/s 741 mmHg 81%
17:00 +13°C° 0.2 mm 5 m/s 741 mmHg 81%
18:00 +13°C° 0.7 mm 5 m/s 741 mmHg 84%
19:00 +12°C° 0.7 mm 5 m/s 741 mmHg 88%
20:00 +12°C° 0.7 mm 5 m/s 741 mmHg 91%
21:00 +12°C° 0.3 mm 5 m/s 741 mmHg 91%
22:00 +12°C° 0.3 mm 5 m/s 741 mmHg 92%
23:00 +12°C° 0.3 mm 5 m/s 741 mmHg 92%
Arată mai mult